Location: Unspecified
(0.0000°N, 0.0000°E)
Time: 03:13:38
(UTC+01:00)

ARIANE 5 R/B - Visible Passes

Search period start: 25 February 2017 00:00
Search period end: 07 March 2017 00:00
Orbit: 544 x 35583 km, 5.0° (Epoch: 22 February)

Date Brightness Start Highest point End Pass type
(mag) Time Alt. Az. Time Alt. Az. Time Alt. Az.
25 Feb 6.7 02:30:36 22° E 02:30:36 22° E 02:39:07 10° E visible
25 Feb 9.9 07:09:11 10° E 10:22:08 27° E 11:49:07 10° E visible
26 Feb 4.9 10:34:32 10° W 20:18:04 86° S 20:22:54 23° E visible
28 Feb 5.3 04:27:46 70° SW 04:29:41 79° S 14:15:34 10° E visible
01 Mar 10.6 07:59:47 10° E 09:24:59 15° E 10:21:09 10° E visible
01 Mar 5.5 22:13:54 10° W 22:19:54 28° W 22:19:54 28° W visible
03 Mar 6.6 06:24:57 12° W 06:46:24 89° S 16:24:36 10° E visible
04 Mar 5.8 03:32:43 60° ESE 03:32:43 60° ESE 13:12:30 10° E visible
05 Mar 3.8 21:07:02 10° W 21:24:36 71° SSW 21:24:36 71° SSW visible
